{"data":{"norad_id":53135,"epoch":"2026-09-20T00:39:45.350208Z","epoch_age_seconds":113063,"freshness":"FRESH","line1":"1 53135U 22083D   26263.02760822  .00009069  00000+0  27955-3 0  9992","line2":"2 53135  53.1608   5.5814 0001219  92.5731 267.5411 15.34361100231764","mean_motion":15.343611,"eccentricity":0.0001219,"inclination_deg":53.1608,"raan_deg":5.5814,"arg_perigee_deg":92.5731,"mean_anomaly_deg":267.5411,"bstar":0.00027955,"rev_number":23176,"period_min":93.850137363363,"perigee_km":461.98494912807,"apogee_km":463.65277416714,"semimajor_km":6840.9558616476,"source":"CELESTRAK","updated_at":"2026-09-20T09:00:40.178764Z"}}